Location: Czekanka
(50.4925°N, 19.2643°E)
Time: 06:35:30
(UTC+00:00)

SL-16 R/B - Pass Details

Date: 19 September 2024
Orbit: 842 x 846 km, 71.0° (Epoch: 05 October)

Event Time Altitude Azimuth Distance (km) Brightness Sun altitude
Rises 17:20:04 0° 166° (SSE) 3,392 5.1 -6.1°
Reaches altitude 10° 17:22:57 10° 152° (SSE) 2,461 4.3 -6.5°
Maximum altitude 17:27:17 23° 102° (ESE) 1,717 3.2 -7.2°
Drops below altitude 10° 17:31:38 10° 52° (NE) 2,473 4.3 -7.9°
Sets 17:34:32 0° 38° (NE) 3,413 5.1 -8.3°
